Wind_Speed
13 13 13 13 12 12 12 12 11 11 12 13 14 15 15 15 16 16 16 18 19 20 19 19 19 19 19 19 19 18 18 17 17 17 16 15 14 13 12 11 10 10 9
13 13 14 13 13 13 13 13 12 12 12 13 14 15 15 16 17 18 18 19 20 20 20 20 20 20 20 21 21 21 20 20 19 19 18 17 17 15 14 13 12 12 11
12 12 12 12 12 13 13 14 14 14 13 14 14 15 16 16 17 17 18 19 21 21 21 21 22 22 22 22 23 23 23 22 22 21 21 20 19 18 17 16 14 13 13
11 12 12 12 13 13 13 14 13 13 13 14 15 15 15 16 17 18 19 20 21 22 23 23 24 24 23 24 24 25 25 24 24 24 23 23 21 20 19 18 17 16 15
11 11 11 12 12 13 13 14 14 14 13 14 14 15 15 17 17 18 19 21 21 23 24 24 25 25 25 25 26 26 27 27 27 26 26 25 24 23 22 20 19 18 17
10 10 10 10 11 11 12 13 13 14 14 14 14 15 16 17 17 18 19 20 22 23 24 25 25 26 26 26 26 27 28 29 29 30 29 28 27 26 25 23 22 21 20
8 8 9 9 10 11 11 12 12 13 14 14 15 15 16 17 18 19 20 20 22 23 24 25 26 26 27 27 27 28 29 30 30 32 31 30 29 29 28 27 25 24 23
7 8 8 9 10 10 11 11 12 12 13 14 15 16 17 18 18 19 21 21 22 22 24 26 27 27 28 29 28 29 30 32 32 33 33 33 31 31 31 30 29 27 26
5 6 8 9 9 10 10 11 12 12 13 14 15 16 17 17 18 20 21 22 23 24 24 26 27 27 28 29 30 31 31 33 34 34 35 34 33 33 33 33 32 30 29
5 6 7 8 8 9 10 11 12 13 14 15 16 16 17 18 19 20 22 23 24 25 26 27 28 29 30 30 31 32 33 33 34 35 36 35 35 35 35 35 34 33 32
5 6 7 7 8 9 10 11 12 13 14 15 16 17 18 19 20 21 22 24 24 25 26 27 28 30 31 32 33 34 34 34 35 37 38 38 37 37 37 37 36 36 35
5 6 7 8 9 10 11 12 13 14 14 16 17 18 19 20 20 22 23 24 25 26 27 28 30 31 32 33 34 35 35 36 36 37 38 39 39 39 39 39 39 38 37
5 6 8 9 10 11 12 13 14 15 15 16 17 18 19 20 21 22 24 25 26 27 29 30 31 32 33 34 35 36 36 37 38 38 39 40 40 40 40 41 41 40 40
6 8 9 10 12 13 14 14 15 16 16 16 17 18 19 20 21 22 24 25 26 28 29 30 31 32 34 36 37 37 38 38 38 39 39 40 41 41 41 42 41 41 42
8 9 10 11 12 13 14 15 15 16 17 17 18 19 20 20 21 22 24 25 26 28 29 30 31 33 33 35 37 38 40 41 41 41 41 42 42 42 43 43 44 44 43
9 10 11 12 13 14 15 16 16 17 18 19 19 20 20 21 22 23 24 25 26 27 29 31 32 33 34 35 36 38 39 41 42 43 44 44 44 44 44 45 45 46 46
10 11 12 13 15 16 16 17 18 18 19 20 21 21 21 22 22 23 24 25 26 27 28 30 31 32 34 35 36 37 39 41 43 44 45 46 46 46 46 46 46 47 47
12 13 14 15 16 18 18 19 20 21 21 22 22 22 23 23 24 24 25 25 26 26 27 29 31 32 33 34 35 36 38 40 42 44 46 47 47 48 48 48 48 48 48
13 14 16 17 18 20 20 21 22 22 23 23 24 24 24 24 25 26 26 26 26 27 28 29 31 32 33 35 35 36 38 39 41 43 46 47 48 49 50 50 49 50 49
15 17 18 19 20 21 22 22 23 24 24 24 25 25 26 26 27 27 27 27 28 28 29 29 30 32 33 35 36 37 38 39 41 42 44 46 48 49 50 51 51 50 50
18 19 20 21 22 23 24 24 25 25 26 26 27 27 27 28 28 29 29 29 30 30 30 30 31 32 33 35 36 37 38 39 40 42 43 45 47 49 50 51 51 51 50
20 21 22 23 23 24 25 26 26 27 28 28 28 29 29 30 30 30 31 31 31 31 31 31 32 33 34 35 36 37 37 38 40 42 42 44 47 48 49 51 51 52 51
22 22 24 24 25 25 26 27 28 28 29 30 30 31 31 32 32 32 32 32 32 33 33 33 33 34 34 35 36 37 38 38 39 41 42 43 45 47 48 50 51 51 52
23 24 25 26 26 27 27 28 29 30 31 31 31 32 33 33 34 34 34 34 34 34 34 34 34 34 35 35 36 37 38 39 39 40 42 42 44 45 47 49 50 51 51
25 26 27 27 28 28 29 30 31 31 32 32 33 33 34 34 35 35 35 35 35 35 35 35 35 35 35 35 36 36 37 38 39 39 40 41 42 44 46 47 49 50 51
27 28 28 29 29 30 31 32 32 33 33 34 34 35 35 36 36 36 37 37 36 36 37 37 36 35 35 35 35 35 35 36 37 38 39 40 41 42 44 45 47 49 50
Wind_Direction
277 280 283 284 285 285 286 283 275 273 266 262 259 256 254 250 247 247 244 240 239 239 239 239 239 237 233 232 230 227 225 225 224 223 222 222 219 217 215 215 214 212 208
279 278 279 282 285 288 289 288 282 277 274 268 264 259 255 252 252 249 245 242 241 241 241 241 241 242 238 236 232 230 228 226 225 225 223 224 223 223 221 221 221 220 217
281 280 281 284 285 287 288 289 287 280 276 271 266 262 258 257 258 254 249 246 244 244 245 244 243 243 241 239 235 231 230 229 227 226 224 224 225 226 226 225 225 225 223
283 281 282 284 284 285 287 287 287 283 276 274 273 269 263 263 262 258 253 249 247 245 245 246 247 246 242 239 238 234 231 231 229 228 226 225 226 227 228 228 227 227 227
286 285 285 284 286 287 286 287 285 282 278 277 277 274 271 269 267 262 256 252 250 248 246 245 247 248 245 243 241 238 235 232 230 230 228 226 226 227 228 228 229 229 229
286 290 292 290 291 292 292 292 288 284 280 279 277 276 275 273 270 266 263 259 253 251 249 247 248 249 248 247 246 242 239 234 232 231 230 228 228 228 229 229 229 230 229
287 293 295 295 296 297 296 294 292 288 284 282 279 277 275 273 270 267 264 262 260 256 252 252 251 251 249 249 248 246 243 240 236 233 232 231 230 229 229 229 230 230 230
291 296 298 299 299 299 299 297 296 293 288 285 282 280 278 276 273 269 265 262 262 261 257 255 253 253 252 249 248 247 245 243 241 237 235 233 232 231 230 230 230 231 232
299 305 307 306 304 303 303 301 299 296 293 290 287 283 280 278 276 272 268 265 264 262 261 257 254 253 251 250 249 246 244 243 242 241 238 236 235 234 232 231 231 232 233
315 317 317 316 314 312 308 305 302 299 296 294 291 287 284 281 278 274 271 269 266 263 262 261 257 254 252 252 251 249 246 244 242 242 239 238 237 236 235 234 233 233 234
320 322 321 318 317 315 313 310 307 304 300 298 295 291 288 285 281 278 275 272 269 265 263 261 260 258 256 253 252 250 248 246 244 243 242 241 239 237 237 236 236 235 234
321 324 326 323 320 318 315 313 312 309 306 302 299 295 291 288 285 282 278 275 272 269 266 263 261 260 258 256 254 253 250 248 246 245 244 243 241 240 238 238 237 237 235
321 324 326 325 323 321 318 315 314 312 309 306 303 299 295 292 289 285 282 279 276 272 269 266 263 260 258 257 256 254 252 250 248 246 244 244 243 241 240 240 239 238 237
321 323 325 325 324 322 321 318 317 315 313 311 308 304 300 296 293 290 286 283 279 276 273 268 265 262 259 257 256 254 252 251 249 247 246 244 243 242 241 241 240 239 238
323 324 325 326 327 327 325 322 320 318 316 313 311 308 304 300 296 293 289 286 283 279 276 272 269 265 263 260 258 255 253 251 250 249 248 246 245 243 242 242 241 241 239
323 324 324 325 326 326 326 324 322 320 318 316 314 311 308 305 302 297 294 290 286 282 279 276 273 269 265 263 260 257 255 253 251 249 248 247 246 244 243 242 241 241 241
320 323 323 324 325 326 325 323 322 320 320 318 316 314 311 308 305 302 298 295 291 285 281 278 275 273 269 266 263 260 256 253 251 249 248 247 246 245 245 243 242 242 241
317 320 320 322 324 324 324 322 321 321 321 319 318 316 313 310 308 305 302 298 294 291 286 281 277 275 272 269 267 263 259 256 253 251 249 248 246 245 244 244 243 242 241
312 316 318 321 322 323 322 321 320 320 320 319 319 318 315 312 310 308 305 301 297 294 291 286 281 277 274 271 268 265 262 258 255 252 250 248 247 246 245 244 244 242 241
309 313 316 319 320 320 321 320 319 319 319 318 318 317 316 314 312 310 307 304 301 297 293 289 284 280 276 273 270 267 264 260 257 254 251 249 247 246 246 245 245 243 241
308 312 314 316 317 319 319 319 318 318 318 318 317 317 316 315 313 311 309 306 304 300 296 292 288 284 279 276 273 270 266 262 258 255 252 250 248 246 245 245 244 244 242
306 309 311 313 315 316 317 318 317 317 317 317 317 316 315 314 313 312 310 308 306 303 300 295 292 288 283 278 274 271 268 264 260 257 254 251 249 247 245 245 244 244 243
304 306 309 311 312 313 314 315 316 316 316 316 315 315 314 313 312 311 310 308 307 305 302 298 294 290 286 281 277 273 269 266 262 258 255 253 250 248 247 245 244 244 243
302 305 308 310 310 311 312 313 314 315 315 315 315 315 314 313 312 311 309 308 306 305 303 300 296 292 288 283 279 275 270 267 263 260 257 254 252 249 247 246 244 243 243
301 304 307 308 309 310 311 312 313 313 314 314 313 314 314 314 313 311 309 308 307 305 304 302 299 294 290 286 281 277 272 268 263 260 258 255 252 250 248 247 245 244 243
300 303 305 307 308 309 310 311 312 313 313 313 313 313 313 313 312 310 309 308 306 305 303 302 300 296 292 288 284 279 274 269 264 260 257 255 253 251 248 247 246 244 242
Height
5885 5885 5884 5884 5884 5884 5883 5883 5883 5883 5884 5884 5884 5885 5885 5886 5887 5888 5889 5890 5891 5892 5894 5895 5896 5897 5898 5899 5901 5902 5904 5906 5908 5910 5911 5913 5914 5915 5916 5917 5918 5919 5920
5882 5882 5881 5881 5881 5881 5881 5880 5880 5880 5880 5881 5881 5881 5882 5882 5883 5884 5885 5886 5887 5889 5890 5891 5892 5893 5894 5896 5897 5899 5901 5903 5905 5907 5909 5911 5912 5913 5915 5916 5917 5918 5919
5879 5879 5879 5879 5878 5878 5878 5878 5877 5877 5877 5878 5878 5878 5878 5879 5879 5880 5881 5882 5883 5885 5886 5887 5888 5889 5890 5891 5893 5895 5897 5899 5901 5903 5905 5908 5910 5911 5913 5914 5915 5917 5918
5877 5876 5876 5876 5875 5875 5875 5875 5874 5874 5874 5874 5874 5874 5875 5875 5875 5876 5877 5878 5879 5880 5881 5882 5884 5884 5885 5887 5888 5890 5892 5895 5897 5899 5901 5904 5906 5908 5910 5912 5913 5914 5916
5874 5874 5873 5873 5872 5872 5872 5872 5871 5871 5871 5871 5871 5871 5871 5871 5871 5872 5872 5873 5874 5875 5876 5878 5879 5880 5881 5882 5883 5885 5887 5890 5892 5895 5897 5899 5902 5904 5906 5908 5910 5912 5913
5872 5872 5871 5870 5870 5869 5869 5868 5868 5868 5867 5867 5867 5867 5867 5867 5867 5868 5868 5869 5869 5870 5871 5872 5874 5874 5876 5877 5878 5880 5882 5884 5886 5889 5892 5894 5897 5900 5902 5904 5907 5909 5911
5870 5869 5869 5868 5867 5867 5866 5866 5865 5864 5864 5864 5864 5863 5863 5863 5863 5863 5863 5864 5864 5865 5866 5867 5868 5869 5870 5872 5873 5875 5876 5878 5880 5883 5886 5889 5891 5894 5897 5900 5902 5904 5907
5868 5867 5867 5866 5865 5864 5864 5863 5862 5861 5861 5860 5860 5859 5859 5859 5859 5858 5859 5859 5859 5860 5860 5861 5862 5863 5864 5866 5868 5869 5871 5872 5874 5877 5880 5882 5886 5888 5891 5894 5897 5900 5902
5866 5865 5865 5864 5863 5862 5861 5860 5859 5858 5857 5857 5856 5856 5855 5855 5854 5854 5853 5853 5854 5854 5855 5856 5856 5857 5858 5859 5861 5862 5864 5866 5868 5870 5873 5876 5879 5882 5885 5888 5891 5894 5897
5864 5864 5863 5862 5861 5860 5859 5858 5856 5855 5854 5853 5852 5851 5850 5850 5849 5848 5848 5848 5848 5848 5848 5849 5850 5851 5851 5852 5854 5855 5857 5859 5861 5864 5866 5869 5872 5875 5878 5881 5884 5888 5891
5863 5862 5861 5860 5859 5858 5856 5855 5854 5852 5851 5849 5848 5847 5846 5845 5844 5843 5843 5842 5842 5842 5842 5842 5843 5844 5845 5845 5847 5848 5850 5852 5854 5856 5859 5862 5864 5868 5871 5874 5877 5880 5884
5861 5860 5859 5858 5857 5855 5854 5852 5850 5849 5847 5845 5844 5842 5841 5840 5838 5837 5836 5836 5835 5835 5835 5835 5836 5836 5837 5838 5839 5841 5842 5844 5846 5848 5851 5854 5856 5859 5863 5866 5869 5873 5876
5860 5859 5858 5856 5854 5853 5851 5849 5847 5845 5843 5841 5839 5837 5836 5834 5833 5831 5830 5829 5828 5828 5827 5827 5828 5828 5828 5829 5830 5832 5834 5836 5838 5840 5842 5845 5848 5851 5854 5857 5861 5865 5868
5858 5857 5855 5854 5852 5850 5848 5846 5844 5841 5839 5837 5835 5833 5831 5829 5827 5825 5824 5822 5821 5820 5820 5819 5819 5819 5820 5821 5822 5823 5825 5827 5829 5831 5833 5836 5839 5842 5845 5849 5852 5856 5860
5856 5854 5853 5851 5849 5847 5845 5843 5840 5838 5835 5833 5831 5828 5826 5823 5821 5819 5817 5815 5814 5813 5812 5811 5811 5811 5811 5811 5812 5813 5815 5817 5819 5821 5824 5826 5829 5832 5836 5839 5843 5847 5851
5854 5852 5850 5848 5846 5844 5841 5839 5837 5834 5831 5829 5826 5823 5821 5818 5815 5813 5811 5809 5807 5805 5803 5802 5801 5801 5801 5802 5803 5804 5805 5807 5808 5811 5813 5816 5819 5822 5825 5829 5833 5837 5841
5851 5849 5847 5845 5843 5840 5838 5835 5832 5830 5827 5824 5821 5818 5815 5812 5809 5807 5804 5802 5799 5797 5795 5794 5792 5791 5791 5791 5792 5793 5794 5796 5797 5800 5802 5805 5808 5812 5815 5818 5822 5826 5830
5848 5846 5844 5842 5839 5837 5834 5831 5828 5825 5822 5819 5816 5813 5810 5806 5803 5800 5797 5794 5792 5789 5787 5785 5783 5782 5781 5781 5782 5782 5783 5784 5786 5788 5790 5793 5796 5800 5803 5807 5811 5815 5819
5845 5843 5840 5838 5835 5832 5829 5826 5823 5820 5817 5814 5810 5807 5804 5800 5797 5794 5790 5787 5784 5782 5779 5777 5775 5773 5772 5771 5771 5771 5772 5773 5774 5776 5779 5781 5784 5788 5791 5795 5799 5803 5808
5841 5839 5836 5834 5831 5828 5825 5822 5818 5815 5811 5808 5805 5801 5797 5794 5790 5787 5783 5780 5776 5773 5770 5768 5765 5763 5762 5760 5760 5760 5761 5761 5763 5764 5766 5769 5772 5775 5779 5783 5787 5791 5795
5837 5834 5832 5829 5826 5823 5820 5816 5813 5809 5806 5802 5798 5795 5791 5787 5783 5779 5776 5772 5768 5765 5762 5759 5756 5754 5752 5750 5749 5749 5749 5749 5751 5752 5754 5756 5759 5763 5765 5769 5773 5778 5783
5832 5829 5827 5824 5821 5818 5814 5811 5807 5803 5800 5796 5792 5788 5784 5780 5776 5772 5768 5764 5760 5756 5753 5749 5747 5744 5741 5739 5738 5737 5737 5738 5739 5740 5741 5744 5746 5749 5752 5756 5761 5765 5770
5827 5824 5821 5818 5815 5812 5809 5805 5801 5797 5793 5789 5785 5781 5777 5772 5768 5764 5760 5756 5751 5747 5743 5740 5737 5733 5731 5728 5727 5726 5725 5725 5726 5727 5728 5731 5733 5736 5739 5743 5747 5752 5756
5821 5818 5815 5812 5809 5806 5802 5798 5794 5790 5786 5782 5778 5773 5769 5764 5760 5755 5751 5747 5742 5738 5734 5730 5727 5723 5720 5717 5715 5714 5713 5713 5714 5714 5715 5718 5720 5723 5726 5729 5734 5739 5743
5815 5812 5809 5806 5802 5798 5795 5791 5787 5783 5779 5774 5770 5765 5761 5756 5751 5747 5742 5737 5733 5728 5724 5720 5716 5712 5709 5706 5704 5702 5701 5701 5702 5702 5703 5705 5707 5710 5713 5716 5720 5725 5730
5808 5805 5802 5799 5795 5791 5787 5783 5779 5775 5771 5766 5762 5757 5752 5748 5742 5737 5732 5728 5723 5718 5713 5709 5705 5702 5698 5695 5692 5690 5689 5688 5689 5690 5691 5692 5695 5697 5700 5704 5707 5711 5716